• In Hungary
  • List of Countries
  • For 7 days
  • Water Temperature
  • Satellite Maps
  • Weather Map
  • News
  • Weather Widgets
  • user-avatar
    Login

    Hourly Weather Yulara

    Today, 20 August, Sunday

    Time Temperature Precipitation Wind Pressure Humidity
    00:00 +19°C° 0 mm 6 mps 720 mmHg 26%
    01:00 +19°C° 0 mm 6 mps 719 mmHg 27%
    02:00 +19°C° 0 mm 6 mps 719 mmHg 29%
    03:00 +17°C° 0 mm 5 mps 718 mmHg 30%
    04:00 +17°C° 0 mm 5 mps 718 mmHg 31%
    05:00 +16°C° 0 mm 5 mps 718 mmHg 32%
    06:00 +17°C° 0 mm 4 mps 718 mmHg 33%
    07:00 +19°C° 0 mm 5 mps 718 mmHg 30%
    08:00 +21°C° 0 mm 6 mps 718 mmHg 26%
    09:00 +24°C° 0 mm 6 mps 719 mmHg 21%
    10:00 +27°C° 0 mm 8 mps 718 mmHg 19%
    11:00 +29°C° 0 mm 9 mps 718 mmHg 18%
    12:00 +32°C° 0 mm 10 mps 718 mmHg 17%
    13:00 +33°C° 0 mm 11 mps 717 mmHg 17%
    14:00 +34°C° 0 mm 12 mps 717 mmHg 17%
    15:00 +34°C° 0 mm 12 mps 716 mmHg 17%
    16:00 +33°C° 0 mm 10 mps 716 mmHg 18%
    17:00 +31°C° 0 mm 9 mps 716 mmHg 20%
    18:00 +29°C° 0 mm 7 mps 717 mmHg 22%
    19:00 +27°C° 0 mm 7 mps 717 mmHg 26%
    20:00 +24°C° 0 mm 7 mps 717 mmHg 29%
    21:00 +22°C° 0 mm 8 mps 717 mmHg 32%
    22:00 +21°C° 0 mm 8 mps 718 mmHg 31%
    23:00 +20°C° 0 mm 7 mps 718 mmHg 29%

    Tomorrow, 21 August, Monday

    Time Temperature Precipitation Wind Pressure Humidity
    00:00 +18°C° 0 mm 7 mps 718 mmHg 28%
    01:00 +17°C° 0 mm 7 mps 718 mmHg 29%
    02:00 +16°C° 0 mm 6 mps 718 mmHg 30%
    03:00 +15°C° 0 mm 5 mps 718 mmHg 31%
    04:00 +14°C° 0 mm 4 mps 719 mmHg 35%
    05:00 +13°C° 0 mm 4 mps 719 mmHg 40%
    06:00 +12°C° 0 mm 4 mps 719 mmHg 45%
    07:00 +13°C° 0 mm 4 mps 720 mmHg 46%
    08:00 +14°C° 0 mm 5 mps 720 mmHg 46%
    09:00 +15°C° 0 mm 5 mps 721 mmHg 47%
    10:00 +17°C° 0 mm 5 mps 720 mmHg 41%
    11:00 +20°C° 0 mm 4 mps 720 mmHg 35%
    12:00 +21°C° 0 mm 4 mps 720 mmHg 29%
    13:00 +22°C° 0 mm 3 mps 720 mmHg 26%
    14:00 +24°C° 0 mm 3 mps 719 mmHg 23%
    15:00 +25°C° 0 mm 3 mps 719 mmHg 20%
    16:00 +24°C° 0 mm 3 mps 719 mmHg 21%
    17:00 +22°C° 0 mm 3 mps 719 mmHg 23%
    18:00 +21°C° 0 mm 3 mps 719 mmHg 24%
    19:00 +20°C° 0 mm 3 mps 720 mmHg 27%
    20:00 +19°C° 0 mm 4 mps 720 mmHg 29%
    21:00 +18°C° 0 mm 4 mps 720 mmHg 32%
    22:00 +17°C° 0 mm 5 mps 720 mmHg 34%
    23:00 +16°C° 0 mm 5 mps 720 mmHg 37%

    Day after tomorrow, 22 August, Tuesday

    Time Temperature Precipitation Wind Pressure Humidity
    00:00 +15°C° 0 mm 5 mps 720 mmHg 40%
    01:00 +15°C° 0 mm 5 mps 720 mmHg 42%
    02:00 +14°C° 0 mm 5 mps 720 mmHg 44%
    03:00 +13°C° 0 mm 5 mps 720 mmHg 46%
    04:00 +13°C° 0 mm 5 mps 720 mmHg 48%
    05:00 +12°C° 0 mm 4 mps 720 mmHg 50%
    06:00 +12°C° 0 mm 4 mps 720 mmHg 51%
    07:00 +13°C° 0 mm 5 mps 721 mmHg 49%
    08:00 +15°C° 0 mm 6 mps 721 mmHg 46%
    09:00 +16°C° 0 mm 7 mps 722 mmHg 43%
    10:00 +19°C° 0 mm 6 mps 721 mmHg 38%
    11:00 +21°C° 0 mm 6 mps 721 mmHg 33%
    12:00 +25°C° 0 mm 5 mps 721 mmHg 28%
    13:00 +26°C° 0 mm 5 mps 720 mmHg 26%
    14:00 +27°C° 0 mm 4 mps 720 mmHg 24%
    15:00 +28°C° 0 mm 3 mps 719 mmHg 22%
    16:00 +27°C° 0 mm 3 mps 719 mmHg 23%
    17:00 +26°C° 0 mm 3 mps 719 mmHg 25%
    18:00 +25°C° 0 mm 3 mps 720 mmHg 26%
    19:00 +24°C° 0 mm 3 mps 720 mmHg 28%
    20:00 +22°C° 0 mm 3 mps 720 mmHg 30%
    21:00 +21°C° 0 mm 3 mps 721 mmHg 31%
    22:00 +21°C° 0 mm 4 mps 721 mmHg 33%
    23:00 +20°C° 0 mm 4 mps 721 mmHg 35%

    23 August, Wednesday

    Time Temperature Precipitation Wind Pressure Humidity
    00:00 +19°C° 0 mm 4 mps 721 mmHg 37%
    01:00 +18°C° 0 mm 4 mps 721 mmHg 39%
    02:00 +18°C° 0 mm 3 mps 720 mmHg 41%
    03:00 +17°C° 0 mm 3 mps 720 mmHg 43%
    04:00 +16°C° 0 mm 3 mps 720 mmHg 44%
    05:00 +16°C° 0 mm 3 mps 721 mmHg 44%
    06:00 +16°C° 0 mm 3 mps 721 mmHg 45%
    07:00 +17°C° 0 mm 3 mps 721 mmHg 41%
    08:00 +19°C° 0 mm 3 mps 722 mmHg 38%
    09:00 +20°C° 0 mm 3 mps 722 mmHg 34%
    10:00 +22°C° 0 mm 3 mps 722 mmHg 32%
    11:00 +24°C° 0 mm 3 mps 722 mmHg 29%
    12:00 +26°C° 0 mm 3 mps 722 mmHg 26%
    13:00 +26°C° 0 mm 3 mps 721 mmHg 26%
    14:00 +27°C° 0 mm 3 mps 721 mmHg 26%
    15:00 +27°C° 0 mm 4 mps 720 mmHg 26%
    16:00 +26°C° 0 mm 3 mps 721 mmHg 27%
    17:00 +25°C° 0 mm 3 mps 721 mmHg 28%
    18:00 +24°C° 0 mm 3 mps 721 mmHg 29%
    19:00 +23°C° 0 mm 2 mps 721 mmHg 31%
    20:00 +21°C° 0 mm 2 mps 722 mmHg 33%
    21:00 +20°C° 0 mm 2 mps 723 mmHg 35%
    22:00 +20°C° 0 mm 3 mps 723 mmHg 34%
    23:00 +20°C° 0 mm 3 mps 723 mmHg 33%

    24 August, Thursday

    Time Temperature Precipitation Wind Pressure Humidity
    00:00 +20°C° 0 mm 4 mps 723 mmHg 32%
    01:00 +19°C° 0 mm 4 mps 723 mmHg 34%
    02:00 +18°C° 0 mm 4 mps 722 mmHg 36%
    03:00 +17°C° 0 mm 5 mps 722 mmHg 38%
    04:00 +16°C° 0 mm 5 mps 722 mmHg 40%
    05:00 +15°C° 0 mm 5 mps 723 mmHg 42%
    06:00 +15°C° 0 mm 5 mps 723 mmHg 43%
    07:00 +16°C° 0 mm 6 mps 723 mmHg 39%
    08:00 +18°C° 0 mm 7 mps 724 mmHg 36%
    09:00 +20°C° 0 mm 8 mps 724 mmHg 32%
    10:00 +22°C° 0 mm 8 mps 724 mmHg 29%
    11:00 +24°C° 0 mm 8 mps 724 mmHg 26%
    12:00 +27°C° 0 mm 7 mps 723 mmHg 23%
    13:00 +27°C° 0 mm 7 mps 722 mmHg 22%
    14:00 +28°C° 0 mm 6 mps 722 mmHg 21%
    15:00 +29°C° 0 mm 6 mps 721 mmHg 20%
    16:00 +28°C° 0 mm 6 mps 721 mmHg 21%
    17:00 +26°C° 0 mm 5 mps 721 mmHg 22%
    18:00 +25°C° 0 mm 4 mps 721 mmHg 24%
    19:00 +23°C° 0 mm 5 mps 722 mmHg 24%
    20:00 +22°C° 0 mm 5 mps 722 mmHg 25%
    21:00 +21°C° 0 mm 6 mps 723 mmHg 26%
    22:00 +20°C° 0 mm 6 mps 723 mmHg 26%
    23:00 +18°C° 0 mm 7 mps 722 mmHg 27%

    25 August, Friday

    Time Temperature Precipitation Wind Pressure Humidity
    00:00 +17°C° 0 mm 7 mps 722 mmHg 27%
    01:00 +17°C° 0 mm 6 mps 722 mmHg 28%
    02:00 +16°C° 0 mm 6 mps 722 mmHg 28%
    03:00 +15°C° 0 mm 5 mps 721 mmHg 29%
    04:00 +15°C° 0 mm 5 mps 721 mmHg 30%
    05:00 +14°C° 0 mm 5 mps 722 mmHg 31%
    06:00 +14°C° 0 mm 5 mps 722 mmHg 32%
    07:00 +15°C° 0 mm 6 mps 722 mmHg 30%
    08:00 +16°C° 0 mm 7 mps 723 mmHg 28%
    09:00 +18°C° 0 mm 8 mps 723 mmHg 26%
    10:00 +21°C° 0 mm 8 mps 722 mmHg 23%
    11:00 +23°C° 0 mm 8 mps 722 mmHg 21%
    12:00 +26°C° 0 mm 8 mps 721 mmHg 19%
    13:00 +27°C° 0 mm 7 mps 721 mmHg 18%
    14:00 +28°C° 0 mm 7 mps 720 mmHg 18%
    15:00 +29°C° 0 mm 6 mps 719 mmHg 17%
    16:00 +28°C° 0 mm 5 mps 719 mmHg 19%
    17:00 +27°C° 0 mm 5 mps 719 mmHg 20%
    18:00 +26°C° 0 mm 4 mps 720 mmHg 21%
    19:00 +25°C° 0 mm 5 mps 720 mmHg 22%
    20:00 +23°C° 0 mm 6 mps 721 mmHg 23%
    21:00 +22°C° 0 mm 7 mps 721 mmHg 24%
    22:00 +21°C° 0 mm 7 mps 721 mmHg 25%
    23:00 +20°C° 0 mm 7 mps 721 mmHg 27%
    Show more